Stations météo

réclame
Mon MeteoGroup
Capo Caccia, Italie (16522): Température de l'air & dewpoint: 11.12.2017 07:00:00 - 17.12.2017 07:00:00 (CET)Capo Caccia, Italie (16522): Vitesse du vent: 11.12.2017 07:00:00 - 17.12.2017 07:00:00 (CET)Capo Caccia, Italie (16522): Direction du vent: 11.12.2017 07:00:00 - 17.12.2017 07:00:00 (CET)Capo Caccia, Italie (16522): reduced air pressure: 11.12.2017 07:00:00 - 17.12.2017 07:00:00 (CET)Capo Caccia, Italie (16522): visibility: 11.12.2017 07:00:00 - 17.12.2017 07:00:00 (CET)Capo Caccia, Italie (16522): Ensoleillement: 11.12.2017 07:00:00 - 17.12.2017 07:00:00 (CET)
Date & Time tt [°C] td [°C] ff [km/h] ff [knt] dd ppp [hPa] vv [km] sd [min]
17.12.2017 07:00:00 10,0 3,5 18 10 NNW 1015,5 15 0
17.12.2017 06:00:00 10,0 3,5 24 13 WNW 1015,3 15 -
17.12.2017 05:00:00 10,0 2,6 24 13 WNW 1014,9 15 -
17.12.2017 04:00:00 10,0 4,0 34 18 WNW 1015,3 15 -
17.12.2017 03:00:00 10,0 3,5 35 19 WNW 1014,8 15 -
17.12.2017 02:00:00 10,0 0,6 26 14 E 1014,6 15 -
17.12.2017 01:00:00 10,0 2,1 34 18 S 1014,6 15 -
17.12.2017 00:00:00 10,0 0,6 28 15 SSE 1014,3 15 -
16.12.2017 23:00:00 9,8 1,2 29 16 WNW 1014,3 15 -
16.12.2017 22:00:00 9,8 1,4 34 18 ESE 1013,5 15 -
16.12.2017 21:00:00 10,0 2,6 34 18 WNW 1012,8 15 -
16.12.2017 20:00:00 10,0 2,6 42 23 NW 1012,3 15 -
16.12.2017 19:00:00 10,2 2,8 42 23 WNW 1011,5 15 -
16.12.2017 18:00:00 10,2 3,9 46 25 WNW 1011,2 15 -
16.12.2017 17:00:00 10,2 3,7 44 24 WNW 1010,4 15 0
16.12.2017 16:00:00 10,4 3,0 42 23 WNW 1009,9 20 30
16.12.2017 15:00:00 10,4 1,8 44 24 WNW 1009,4 20 48
16.12.2017 14:00:00 10,6 1,2 42 23 WNW 1009,4 20 60
16.12.2017 13:00:00 10,4 -0,1 39 21 W 1009,4 20 30
16.12.2017 12:00:00 10,4 2,5 37 20 WNW 1009,8 20 12
16.12.2017 11:00:00 10,4 2,5 29 16 WNW 1009,9 20 0
16.12.2017 10:00:00 10,6 2,7 41 22 WNW 1009,4 20 12
16.12.2017 09:00:00 10,8 3,6 39 21 WNW 1008,3 15 0
16.12.2017 08:00:00 11,0 3,8 37 20 WNW 1007,9 15 0
16.12.2017 07:00:00 11,0 4,0 37 20 WNW 1007,4 15 0
16.12.2017 06:00:00 11,6 4,1 34 18 NW 1007,3 15 -
16.12.2017 05:00:00 11,6 4,8 34 18 NW 1007,2 15 -
16.12.2017 04:00:00 11,4 4,8 37 20 NW 1007,2 15 -
16.12.2017 03:00:00 11,6 5,0 34 18 NW 1007,3 15 -
16.12.2017 02:00:00 11,4 3,9 41 22 WNW 1007,3 15 -
16.12.2017 01:00:00 11,6 4,4 34 18 WNW 1007,4 15 -
16.12.2017 00:00:00 11,6 5,5 34 18 WNW 1007,1 15 -
15.12.2017 23:00:00 11,2 5,5 22 12 WNW 1007,2 15 -
15.12.2017 22:00:00 11,8 6,3 26 14 WNW 1006,2 15 -
15.12.2017 21:00:00 11,2 5,5 35 19 NW 1005,9 15 -
15.12.2017 20:00:00 11,6 7,1 37 20 WSW 1005,5 15 -
15.12.2017 19:00:00 11,2 5,3 24 13 W 1004,6 12 0
15.12.2017 18:00:00 12,6 9,4 24 13 NW 1003,9 8 0
15.12.2017 17:00:00 12,6 11,3 22 12 NW 1003,1 8 0
15.12.2017 16:00:00 12,6 12,3 26 14 WNW 1002,8 7 0
15.12.2017 15:00:00 12,2 12,2 39 21 N 1002,0 1,5 0
15.12.2017 14:00:00 12,6 12,1 22 12 NW 1002,0 3,0 0
15.12.2017 13:00:00 13,2 12,9 18 10 WNW 1003,1 6 0
15.12.2017 12:00:00 13,8 13,7 18 10 N 1003,0 6 0
15.12.2017 11:00:00 13,8 13,5 24 13 NW 1004,0 1,2 0
15.12.2017 10:00:00 14,0 13,7 37 20 N 1004,0 1,2 0
15.12.2017 09:00:00 14,0 13,5 18 10 SW 1004,8 1,5 0
15.12.2017 08:00:00 14,0 13,5 16 9 SW 1006,0 6 0
15.12.2017 07:00:00 13,8 13,3 16 9 N 1007,0 8 0
15.12.2017 06:00:00 14,0 13,7 16 9 SW 1007,3 15 -
15.12.2017 05:00:00 14,0 13,5 13 7 ESE 1008,7 20 -
15.12.2017 04:00:00 14,0 13,5 15 8 W 1009,1 20 -
15.12.2017 03:00:00 14,0 13,4 16 9 WSW 1010,3 20 -
15.12.2017 02:00:00 14,0 13,5 15 8 SSW 1010,6 20 -
15.12.2017 01:00:00 14,0 13,1 16 9 WSW 1011,7 20 -
15.12.2017 00:00:00 14,0 13,2 11 6 SW 1012,2 20 -
14.12.2017 23:00:00 14,0 13,2 13 7 WSW 1012,6 20 -
14.12.2017 22:00:00 14,0 12,9 15 8 WSW 1013,1 20 -
14.12.2017 21:00:00 14,0 13,2 13 7 W 1013,2 20 -
14.12.2017 20:00:00 14,0 12,4 13 7 NNW 1013,2 20 -
14.12.2017 19:00:00 14,0 12,6 9 5 W 1014,2 20 0
14.12.2017 18:00:00 14,0 11,9 16 9 WNW 1014,2 20 0
14.12.2017 17:00:00 14,0 12,7 11 6 W 1014,2 20 0
14.12.2017 16:00:00 14,2 12,1 11 6 ENE 1014,7 20 0
14.12.2017 15:00:00 14,4 11,9 9 5 E 1015,2 20 0
14.12.2017 14:00:00 14,4 11,0 16 9 SSE 1015,2 20 0
14.12.2017 13:00:00 14,4 11,9 22 12 SSE 1017,1 15 0
14.12.2017 12:00:00 13,8 11,9 15 8 ESE 1018,0 20 0
14.12.2017 11:00:00 13,8 11,9 15 8 SW 1018,3 20 0
14.12.2017 10:00:00 13,8 11,3 8 4 SW 1018,3 20 0
14.12.2017 09:00:00 13,8 11,1 18 10 NW 1017,9 20 0
14.12.2017 08:00:00 13,4 10,0 16 9 WSW 1017,4 20 0
14.12.2017 07:00:00 13,4 9,7 15 8 SW 1017,4 20 -
14.12.2017 06:00:00 13,0 8,3 15 8 W 1017,5 20 -
14.12.2017 05:00:00 13,2 8,5 16 9 WSW 1017,9 20 -
14.12.2017 04:00:00 13,0 8,3 16 9 WNW 1018,4 20 -
14.12.2017 03:00:00 12,6 7,5 18 10 NW 1019,5 20 -
14.12.2017 02:00:00 12,4 8,1 18 10 SE 1019,4 20 -
14.12.2017 01:00:00 12,2 5,8 11 6 ENE 1019,9 20 -
14.12.2017 00:00:00 12,2 5,6 13 7 SE 1020,8 20 -
13.12.2017 23:00:00 12,2 5,4 13 7 SSW 1020,9 20 -
13.12.2017 22:00:00 12,0 5,2 13 7 SSW 1020,8 20 -
13.12.2017 21:00:00 11,8 6,5 21 11 WSW 1021,6 20 -
13.12.2017 20:00:00 11,8 5,9 9 5 WSW 1021,7 20 -
13.12.2017 19:00:00 11,8 4,3 16 9 NW 1021,6 30 -
13.12.2017 18:00:00 11,8 5,9 9 5 NNW 1021,9 20 0
13.12.2017 17:00:00 11,8 5,4 16 9 NNW 1022,7 30 0
13.12.2017 16:00:00 12,0 1,0 28 15 W 1022,6 20 60
13.12.2017 15:00:00 12,0 1,0 18 10 W 1022,5 20 60
13.12.2017 14:00:00 12,0 1,0 9 5 W 1022,7 20 60
13.12.2017 13:00:00 12,0 2,2 13 7 WNW 1023,4 20 60
13.12.2017 12:00:00 11,8 2,5 9 5 W 1023,6 20 60
13.12.2017 11:00:00 11,2 2,0 18 10 WNW 1023,8 20 60
13.12.2017 10:00:00 11,0 3,1 24 13 WNW 1022,7 20 60
13.12.2017 09:00:00 11,2 4,0 26 14 WNW 1021,9 10 0
13.12.2017 08:00:00 12,0 5,5 24 13 WNW 1021,5 10 0
13.12.2017 07:00:00 12,0 6,8 22 12 WNW 1020,5 10 0
13.12.2017 06:00:00 12,0 7,5 18 10 WNW 1019,4 10 -
13.12.2017 05:00:00 12,0 8,8 21 11 NW 1019,4 10 -
13.12.2017 04:00:00 12,0 9,9 4 2 NW 1019,4 10 -
13.12.2017 03:00:00 - - - - - - - -
13.12.2017 02:00:00 - - - - - - - -
13.12.2017 01:00:00 12,0 11,1 5 3 SW 1018,4 12 -
13.12.2017 00:00:00 12,0 11,2 5 3 WNW 1018,2 12 -
12.12.2017 23:00:00 12,0 10,7 9 5 SSE 1017,4 12 -
12.12.2017 22:00:00 12,0 9,5 2 1 SE 1017,2 12 -
12.12.2017 21:00:00 11,8 10,4 4 2 ENE 1017,0 12 -
12.12.2017 20:00:00 11,8 10,7 11 6 SSW 1016,4 10 -
12.12.2017 19:00:00 11,8 10,5 0 0 N 1015,9 10 0
12.12.2017 18:00:00 11,6 10,0 4 2 NW 1015,4 10 0
12.12.2017 17:00:00 12,0 10,4 11 6 WNW 1014,3 10 0
12.12.2017 16:00:00 12,2 10,9 16 9 WNW 1013,4 10 0
12.12.2017 15:00:00 13,0 11,6 13 7 NNW 1013,1 12 0
12.12.2017 14:00:00 13,2 11,8 9 5 SW 1013,1 15 0
12.12.2017 13:00:00 13,4 12,6 9 5 WSW 1013,1 15 0
12.12.2017 12:00:00 14,0 13,0 16 9 NW 1012,6 15 0
12.12.2017 11:00:00 13,8 12,2 13 7 NNW 1012,1 15 0
12.12.2017 10:00:00 13,6 11,1 9 5 NNE 1011,1 15 0
12.12.2017 09:00:00 13,4 11,8 15 8 S 1010,2 15 0
12.12.2017 08:00:00 13,4 12,5 11 6 SSE 1010,1 15 0
12.12.2017 07:00:00 14,2 12,9 9 5 ESE 1009,0 15 0
12.12.2017 06:00:00 15,0 13,4 9 5 W 1008,0 12 -
12.12.2017 05:00:00 15,0 12,3 11 6 WNW 1007,5 15 -
12.12.2017 04:00:00 15,0 12,0 15 8 NE 1007,7 15 -
12.12.2017 03:00:00 15,2 12,7 13 7 NNE 1006,3 15 -
12.12.2017 02:00:00 15,2 13,2 21 11 NNW 1005,5 15 -
12.12.2017 01:00:00 15,0 13,4 21 11 N 1004,9 15 -
12.12.2017 00:00:00 15,2 13,6 26 14 SSE 1003,9 15 -
11.12.2017 23:00:00 15,8 11,4 35 19 S 1001,8 15 -
11.12.2017 22:00:00 15,6 11,8 44 24 S 1001,8 15 -
11.12.2017 21:00:00 15,6 11,2 54 29 S 1000,8 15 -
11.12.2017 20:00:00 15,6 10,2 46 25 S 1000,6 12 -
11.12.2017 19:00:00 15,6 11,2 61 33 S 999,5 12 -
11.12.2017 18:00:00 15,4 10,8 46 25 S 999,3 12 0
11.12.2017 17:00:00 15,4 10,4 46 25 S 998,9 12 0
11.12.2017 16:00:00 15,4 12,4 46 25 S 998,9 15 0
11.12.2017 15:00:00 15,4 12,4 54 29 S 999,1 15 0
11.12.2017 14:00:00 15,4 12,0 52 28 S 999,6 15 0
11.12.2017 13:00:00 15,2 11,6 57 31 S 999,8 15 0
11.12.2017 12:00:00 15,2 11,8 63 34 S 999,8 15 0
11.12.2017 11:00:00 15,4 11,2 57 31 S 999,8 12 0
11.12.2017 10:00:00 15,4 11,2 55 30 S 1000,4 12 0
11.12.2017 09:00:00 15,0 12,0 42 23 S 1000,2 12 0
11.12.2017 08:00:00 15,0 12,5 41 22 S 1000,8 12 0
11.12.2017 07:00:00 15,0 12,9 46 25 S 1000,0 15 0

tt = Température de l'air
td = dewpoint
ff = Vitesse du vent
dd = Direction du vent
ppp = reduced air pressure
vv = visibility
sd = Ensoleillement

stations d'obs. à proximité